{"data":{"norad_id":58684,"intl_designator":"2023-211T","name":"STARLINK-31107","alt_names":[],"object_type":"PAYLOAD","status":"ACTIVE","operator":null,"country":"US","launch_date":"2023-12-29","launch_site_code":"AFETR","launch_vehicle":null,"mission":null,"orbit_class":"UNKNOWN","rcs_meters":null,"size_class":null,"mass_kg":null,"dimensions":null,"purposes":["comms"],"wikipedia_slug":null,"has_3d_model":false,"image_url":null,"decayed_at":null,"tle_current":{"epoch":"2026-05-25T00:27:31.496256Z","epoch_age_seconds":69284,"freshness":"FRESH","line1":"1 58684U 23211T   26145.01911454 -.00000244  00000+0  64270-6 0  9998","line2":"2 58684  43.0065  14.6003 0001009 285.3655  74.7085 15.27584997134139","mean_motion":15.27584997,"eccentricity":0.0001009,"inclination_deg":43.0065,"raan_deg":14.6003,"arg_perigee_deg":285.3655,"mean_anomaly_deg":74.7085,"bstar":6.427e-7,"rev_number":13413,"period_min":94.266440350487,"perigee_km":482.34184109743,"apogee_km":483.72642543213,"semimajor_km":6861.1711332648,"source":"CELESTRAK","updated_at":"2026-05-25T13:38:18.713616Z"}}}